Simultaneous Nadir Overpasses (SNOs) Predictions

Prediction of SNOs between TERRA and METOP-C Satellite Orbit:

Table of predicted SNOs for the next 14.0 days since TLE Epoch: 6/14/2025
Index Date (TERRA) Time (TERRA) Lat,Lon (TERRA) SZA (TERRA ) Date (METOP-C) Time (METOP-C) Lat,Lon (METOP-C) SZA (METOP-C ) Distance(km) Time Diff (sec)
1 06/16/2025 07:28:01 -71.78, 3.35 104.70 06/16/2025 07:27:15 -71.79, 3.30 104.77 1.74 46
2 06/16/2025 08:16:33 69.15, 174.82 77.76 06/16/2025 08:17:07 69.13, 174.87 77.82 2.47 34
3 06/18/2025 21:06:46 70.82, -19.95 76.10 06/18/2025 21:06:35 70.81, -19.88 76.11 2.75 11
4 06/18/2025 21:55:27 -68.74, 150.52 101.99 06/18/2025 21:56:35 -68.74, 150.52 101.91 0.28 68
5 06/21/2025 09:57:00 72.59, 144.66 74.37 06/21/2025 09:56:05 72.60, 144.60 74.29 2.03 55
6 06/21/2025 10:45:46 -70.82, -44.76 103.98 06/21/2025 10:46:10 -70.83, -44.82 103.97 2.54 24
7 06/23/2025 23:35:47 -71.86, 121.13 104.97 06/23/2025 23:35:26 -71.85, 121.16 104.98 1.16 21
8 06/24/2025 00:24:34 70.05, -68.47 76.71 06/24/2025 00:25:34 70.06, -68.50 76.76 1.64 60
9 06/26/2025 12:25:52 -73.12, -73.61 106.14 06/26/2025 12:24:47 -73.11, -73.60 106.21 0.23 65



Historial Predications of SNOs between TERRA and METOP-C
